TimeEDT,TemperatureF,Dew PointF,Humidity,Sea Level PressureIn,VisibilityMPH,Wind Direction,Wind SpeedMPH,Gust SpeedMPH,PrecipitationIn,Events,Conditions,WindDirDegrees,DateUTC
12:15 AM,2.5,-7.2,64,30.04,10.0,SW,6.9,-,N/A,,Clear,230,2014-03-25 04:15:00
12:35 AM,2.8,-6.7,64,30.04,10.0,SSW,6.9,-,N/A,,Clear,200,2014-03-25 04:35:00
12:55 AM,4.1,-6.0,63,30.04,10.0,SSW,4.6,-,N/A,,Clear,210,2014-03-25 04:55:00
1:15 AM,3.4,-6.0,65,30.04,10.0,Calm,Calm,-,N/A,,Clear,0,2014-03-25 05:15:00
1:35 AM,2.1,-6.7,67,30.04,10.0,SW,5.8,-,N/A,,Clear,220,2014-03-25 05:35:00
1:55 AM,1.2,-7.2,68,30.04,10.0,SW,6.9,-,N/A,,Clear,220,2014-03-25 05:55:00
2:15 AM,1.2,-7.2,68,30.02,10.0,SSW,6.9,-,N/A,,Clear,210,2014-03-25 06:15:00
2:35 AM,1.4,-7.1,68,30.02,10.0,SW,5.8,-,N/A,,Clear,220,2014-03-25 06:35:00
2:55 AM,1.2,-6.5,70,30.01,10.0,SSW,4.6,-,N/A,,Clear,200,2014-03-25 06:55:00
3:15 AM,0.7,-7.6,68,30.01,10.0,SW,6.9,-,N/A,,Clear,220,2014-03-25 07:15:00
3:35 AM,-0.8,-8.0,72,30.00,10.0,SW,6.9,-,N/A,,Clear,220,2014-03-25 07:35:00
3:55 AM,-2.6,-9.4,73,30.00,10.0,SW,8.1,-,N/A,,Clear,220,2014-03-25 07:55:00
4:15 AM,-0.6,-7.4,73,30.00,10.0,SW,8.1,-,N/A,,Clear,230,2014-03-25 08:15:00
4:35 AM,-3.3,-10.5,71,30.00,10.0,SW,9.2,-,N/A,,Clear,220,2014-03-25 08:35:00
4:55 AM,-1.3,-8.0,73,30.00,10.0,SSW,8.1,-,N/A,,Clear,210,2014-03-25 08:55:00
5:15 AM,-1.5,-8.5,72,30.01,10.0,SW,6.9,-,N/A,,Clear,230,2014-03-25 09:15:00
5:35 AM,-2.7,-9.2,74,30.01,10.0,SSW,8.1,-,N/A,,Clear,210,2014-03-25 09:35:00
5:55 AM,-1.8,-8.5,73,30.01,10.0,SW,9.2,-,N/A,,Clear,220,2014-03-25 09:55:00
6:15 AM,-1.5,-7.8,75,30.01,10.0,SSW,5.8,-,N/A,,Scattered Clouds,200,2014-03-25 10:15:00
6:35 AM,-0.6,-7.2,73,30.02,10.0,SW,6.9,-,N/A,,Scattered Clouds,220,2014-03-25 10:35:00
6:55 AM,-1.8,-8.9,72,30.02,10.0,South,4.6,-,N/A,,Mostly Cloudy,190,2014-03-25 10:55:00
7:15 AM,-0.8,-8.1,71,30.02,10.0,South,4.6,-,N/A,,Overcast,190,2014-03-25 11:15:00
7:35 AM,-0.6,-7.8,72,30.02,10.0,SSW,5.8,-,N/A,,Overcast,210,2014-03-25 11:35:00
7:55 AM,-0.4,-7.8,71,30.02,10.0,SSW,5.8,-,N/A,,Mostly Cloudy,210,2014-03-25 11:55:00
8:15 AM,3.4,-5.3,67,30.02,10.0,SW,4.6,-,N/A,,Mostly Cloudy,220,2014-03-25 12:15:00
8:35 AM,5.4,-4.5,64,30.02,10.0,SSW,4.6,-,N/A,,Scattered Clouds,210,2014-03-25 12:35:00
8:55 AM,8.8,-2.2,61,30.02,10.0,South,3.5,-,N/A,,Mostly Cloudy,180,2014-03-25 12:55:00
9:15 AM,15.6,0.7,52,30.01,10.0,Calm,Calm,-,N/A,,Mostly Cloudy,0,2014-03-25 13:15:00
9:35 AM,15.3,0.9,53,30.01,10.0,SW,3.5,-,N/A,,Mostly Cloudy,220,2014-03-25 13:35:00
9:55 AM,17.6,1.6,50,30.00,10.0,SSW,4.6,-,N/A,,Scattered Clouds,210,2014-03-25 13:55:00
10:15 AM,19.9,2.7,47,30.00,10.0,South,5.8,-,N/A,,Clear,180,2014-03-25 14:15:00
10:35 AM,21.4,3.7,47,29.99,10.0,South,6.9,-,N/A,,Clear,190,2014-03-25 14:35:00
10:55 AM,22.5,4.8,47,29.99,10.0,South,10.4,-,N/A,,Clear,170,2014-03-25 14:55:00
11:15 AM,23.2,5.4,47,29.98,10.0,South,8.1,-,N/A,,Clear,170,2014-03-25 15:15:00
11:35 AM,23.4,3.7,43,29.98,10.0,SSW,6.9,-,N/A,,Scattered Clouds,200,2014-03-25 15:35:00
11:55 AM,25.0,2.7,38,29.98,10.0,South,9.2,16.1,N/A,,Scattered Clouds,180,2014-03-25 15:55:00
12:15 PM,25.2,2.8,38,29.97,10.0,WSW,5.8,-,N/A,,Scattered Clouds,250,2014-03-25 16:15:00
12:35 PM,27.1,1.6,33,29.97,10.0,SSW,9.2,-,N/A,,Mostly Cloudy,210,2014-03-25 16:35:00
12:55 PM,27.0,0.5,32,29.97,10.0,SSW,11.5,16.1,N/A,,Overcast,200,2014-03-25 16:55:00
1:15 PM,27.5,2.3,34,29.97,10.0,South,10.4,-,N/A,,Overcast,180,2014-03-25 17:15:00
1:35 PM,27.5,0.5,31,29.97,10.0,South,10.4,-,N/A,,Overcast,190,2014-03-25 17:35:00
2:15 PM,28.0,1.0,31,29.96,10.0,South,10.4,-,N/A,,Overcast,170,2014-03-25 18:15:00
2:35 PM,28.6,0.5,30,29.96,10.0,SSW,10.4,16.1,N/A,,Overcast,200,2014-03-25 18:35:00
2:55 PM,28.4,-0.4,29,29.95,10.0,South,11.5,18.4,N/A,,Overcast,170,2014-03-25 18:55:00
3:15 PM,29.1,1.2,30,29.95,10.0,SSW,12.7,17.3,N/A,,Overcast,200,2014-03-25 19:15:00
3:35 PM,29.5,1.2,30,29.95,10.0,SSW,9.2,-,N/A,,Mostly Cloudy,200,2014-03-25 19:35:00
3:55 PM,30.2,-0.8,27,29.95,10.0,SW,12.7,-,N/A,,Mostly Cloudy,230,2014-03-25 19:55:00
4:15 PM,29.3,-2.2,26,29.94,10.0,SSE,6.9,-,N/A,,Scattered Clouds,160,2014-03-25 20:15:00
4:35 PM,29.3,-2.2,26,29.93,10.0,SSE,6.9,-,N/A,,Mostly Cloudy,160,2014-03-25 20:35:00
4:55 PM,29.8,-1.3,26,29.93,10.0,South,8.1,-,N/A,,Scattered Clouds,170,2014-03-25 20:55:00
5:15 PM,29.3,-1.3,27,29.93,10.0,South,5.8,-,N/A,,Scattered Clouds,190,2014-03-25 21:15:00
5:35 PM,29.5,-2.7,25,29.93,10.0,SSW,6.9,-,N/A,,Scattered Clouds,200,2014-03-25 21:35:00
5:55 PM,29.5,-3.3,24,29.93,10.0,South,5.8,-,N/A,,Clear,170,2014-03-25 21:55:00
6:15 PM,29.1,-2.9,25,29.93,10.0,South,6.9,-,N/A,,Clear,170,2014-03-25 22:15:00
6:35 PM,28.4,-3.6,25,29.93,10.0,South,3.5,-,N/A,,Clear,180,2014-03-25 22:35:00
6:55 PM,25.2,-3.3,29,29.93,10.0,SSE,5.8,-,N/A,,Clear,160,2014-03-25 22:55:00
7:15 PM,18.9,-1.5,41,29.93,10.0,SSE,5.8,-,N/A,,Clear,150,2014-03-25 23:15:00
7:35 PM,17.6,-2.2,42,29.93,10.0,SE,5.8,-,N/A,,Clear,140,2014-03-25 23:35:00
7:55 PM,16.5,-1.7,45,29.93,10.0,SE,5.8,-,N/A,,Clear,140,2014-03-25 23:55:00
8:15 PM,14.0,-3.1,47,29.94,10.0,SE,6.9,-,N/A,,Clear,140,2014-03-26 00:15:00
8:35 PM,14.5,-1.8,48,29.94,10.0,SE,8.1,-,N/A,,Clear,140,2014-03-26 00:35:00
8:55 PM,13.1,-1.8,51,29.95,10.0,SE,6.9,-,N/A,,Clear,130,2014-03-26 00:55:00
9:15 PM,21.0,0.7,41,29.94,10.0,Calm,Calm,-,N/A,,Clear,0,2014-03-26 01:15:00
9:35 PM,23.5,0.9,37,29.95,10.0,South,3.5,-,N/A,,Clear,190,2014-03-26 01:35:00
9:55 PM,23.0,0.5,38,29.95,10.0,SSW,3.5,-,N/A,,Clear,200,2014-03-26 01:55:00
10:15 PM,17.8,-0.6,45,29.95,10.0,South,3.5,-,N/A,,Clear,170,2014-03-26 02:15:00
10:35 PM,20.8,1.8,44,29.95,10.0,SSE,5.8,-,N/A,,Clear,160,2014-03-26 02:35:00
10:55 PM,19.6,1.9,46,29.95,10.0,South,3.5,-,N/A,,Clear,180,2014-03-26 02:55:00
11:15 PM,16.5,0.7,50,29.94,10.0,Calm,Calm,-,N/A,,Clear,0,2014-03-26 03:15:00
11:35 PM,18.9,1.6,47,29.93,10.0,Calm,Calm,-,N/A,,Clear,0,2014-03-26 03:35:00
11:55 PM,13.5,0.5,56,29.93,10.0,Calm,Calm,-,N/A,,Clear,0,2014-03-26 03:55:00